Location: Logan
(41.7360°N, 111.8340°W)
Time: 18:52:56
(UTC-06:00)

Daily predictions for brighter satellites

Satellite Brightness Start Highest point End
(mag) Time Altitude Azimuth Time Altitude Azimuth Time Altitude Azimuth
Helios 1B rocket 3.1 21:15:34 10° NNE 21:19:19 33° E 21:23:02 10° SSE
Cosmos 1125 Rocket 4.3 21:15:14 10° SSE 21:19:42 29° E 21:24:11 10° NE
Cosmos 2084 3.4 21:18:29 10° NNW 21:22:18 62° NE 21:26:13 10° SE
Lacrosse 4 Rocket 3.1 21:23:13 10° N 21:26:51 23° NE 21:30:25 10° ESE
Cosmos 1869 Rocket 4.0 21:23:36 10° SSE 21:27:38 40° E 21:31:44 10° NNE
Cosmos 2344 4.2 21:24:32 10° S 21:31:05 31° ESE 21:37:59 10° NE
YAOGAN 6 2.7 21:35:56 10° SSE 21:39:36 67° ENE 21:43:16 10° N
SJ-11-01 4.3 21:35:25 10° SSE 21:40:09 88° W 21:44:53 10° NNW
Cosmos 2369 Rocket 2.2 21:34:42 10° SSW 21:40:20 76° ESE 21:46:03 10° NNE
Cosmos 1606 3.4 21:38:40 10° N 21:42:10 35° ENE 21:45:19 12° SE
Cosmos 158 Rocket 4.3 21:41:13 10° N 21:45:56 45° ENE 21:50:03 13° SE
Meteor 1-29 3.1 21:44:25 10° NNE 21:47:52 55° E 21:51:18 10° S
Cosmos 2221 Rocket 3.7 21:43:49 10° N 21:48:13 63° E 21:52:38 10° SSE
USA 186 4.1 21:46:47 10° SW 21:48:51 20° W 21:51:04 10° NW
GPS 2-04 Rocket1 3.6 21:47:39 10° WSW 21:50:58 29° S 21:53:12 16° SE
SAR-Lupe-1 4.4 21:48:40 13° SSE 21:51:43 49° ENE 21:55:11 10° N
Cosmos 1346 Rocket 3.9 21:48:43 10° NNW 21:52:31 45° W 21:56:21 10° SSW
Lacrosse 5 rocket 1.4 21:50:53 10° SW 21:54:26 66° NW 21:58:04 10° NE
H-2A R/B 3.3 21:51:42 13° ESE 21:55:31 28° ENE 21:59:57 10° N
Helios 1A 3.3 21:53:07 10° S 21:57:16 68° WSW 22:01:29 10° NNW
COSMOS 2455 3.2 21:51:17 10° SW 21:57:16 71° WNW 22:03:18 10° NNE
Molniya-1 4.1 21:55:48 10° WSW 21:57:23 32° NW 21:58:51 10° NNE
ATLAS 5 CENTAUR R/B 2.7 21:53:18 10° NNW 21:59:12 61° NE 22:04:25 16° SE
MetOp-B 4.4 21:56:06 13° SE 22:00:43 53° ENE 22:05:55 10° N
Aureole 3 2.5 22:00:01 10° S 22:03:02 89° WSW 22:06:02 10° N
Cosmos 1939 Rocket 4.2 22:01:39 10° SSW 22:05:33 40° W 22:09:28 10° NNW
Cosmos 1408 2.5 22:03:19 10° S 22:07:01 75° E 22:10:46 10° NNE
ISS -2.2 22:04:22 10° W 22:07:26 37° NNW 22:10:30 10° NE
ERS-1 Rocket 3.0 22:03:37 13° SSE 22:08:10 76° ENE 22:13:13 10° N
Cosmos 1634 Rocket 4.4 22:02:50 10° NNW 22:09:04 67° W 22:15:19 10° S
Cosmos 1656 Rocket 4.3 22:06:47 12° SSE 22:11:15 33° ESE 22:16:07 10° NE
Tiangong 2 3.2 22:10:23 10° WSW 22:12:32 17° SSW 22:13:47 14° S
ARGOS 3.3 22:10:23 17° SSE 22:14:26 59° ENE 22:19:42 10° N
Meteor 1-27 Rocket 3.9 22:10:16 10° N 22:15:57 56° ENE 22:19:50 20° SSE
CZ-4B DEB 3.7 22:13:37 12° S 22:16:09 40° W 22:18:57 10° NNW
Meteor 1-10 Rocket 4.4 22:11:37 10° N 22:17:36 84° W 22:23:06 12° S
Terra 3.5 22:16:28 15° E 22:18:34 20° ENE 22:21:57 10° NNE
Resurs 01 Rocket 4.4 22:17:06 10° WSW 22:19:14 13° W 22:21:22 10° WNW
Nadezhda 4 Rocket 4.3 22:14:44 15° SSE 22:19:29 45° E 22:25:18 10° NNE
Cosmos 1048 Rocket 4.0 22:14:50 10° NNW 22:20:11 88° W 22:24:01 19° SSE
Meteor 2-6 Rocket 4.4 22:16:21 10° N 22:22:21 84° W 22:27:39 13° S
Cosmos 1825 2.4 22:21:03 10° SSW 22:24:48 69° W 22:28:36 10° N
Cosmos 1437 4.3 22:26:23 10° NNE 22:28:53 20° ENE 22:29:01 20° ENE
Okean 1-7 4.0 22:24:43 10° NNW 22:28:57 46° W 22:33:07 10° SSW
USA 215 3.3 22:25:19 20° ESE 22:30:04 78° NE 22:36:39 10° NW
Cosmos 1782 3.7 22:28:24 10° NNW 22:32:14 46° W 22:35:31 13° SSW
TRAILBLAZER 4.5 22:31:16 10° SSW 22:35:45 74° ESE 22:40:19 10° NE
SPOT 5 3.1 22:36:07 24° SSE 22:39:29 84° ENE 22:44:48 10° NNW
Alouette 2 Rocket 4.5 22:31:49 10° S 22:39:42 67° E 22:44:44 10° NNE
Cosmos 2279 Rocket 4.4 22:35:22 10° NNW 22:41:32 63° W 22:47:09 12° S
Cosmos 2251 Rocket 4.1 22:41:09 10° N 22:46:08 43° ENE 22:48:10 30° ESE
Cosmos 2227 Rocket 4.2 22:45:09 10° N 22:48:47 17° NE 22:51:48 12° E
DMSP B5D2-2 4.3 22:44:58 10° NNE 22:50:03 49° E 22:52:00 33° SSE
Cosmos 1862 3.8 22:50:16 17° SSW 22:53:08 57° W 22:57:04 10° N
SPOT 1/Viking Rocket 3.5 22:51:10 31° SSE 22:53:43 85° ENE 22:58:58 10° NNW
CENTAUR R/B 3.3 22:48:10 10° SW 22:54:07 54° NW 23:00:55 10° NNE
Cosmos 1812 4.1 22:52:30 10° NNE 22:55:42 24° ENE 22:55:42 24° ENE
Cosmos 2219 3.7 22:51:15 10° NNW 22:56:50 48° ENE 22:59:07 32° ESE
Cosmos 1733 Rocket 3.1 22:54:42 24° SSW 22:57:12 74° W 23:01:33 10° N
Intercosmos 25 Rocket 4.1 22:50:58 10° N 22:58:09 87° E 23:00:10 36° S
Cosmos 1943 Rocket 3.3 22:53:00 10° SW 22:58:21 45° WNW 23:03:40 10° NNE
Cosmos 1340 4.1 22:55:51 10° NNW 22:59:17 33° W 23:01:16 20° SW
Lacrosse 4 Rocket 2.5 23:01:31 10° NW 23:05:44 40° WSW 23:07:15 30° SSW
Cosmos 1346 4.2 23:05:41 10° N 23:07:26 34° N 23:07:26 34° N
Nimbus 7 Rocket 4.4 23:04:50 10° NNE 23:10:45 85° WNW 23:14:53 21° SSW
Sich 1 Rocket 3.6 23:11:41 55° SE 23:12:17 62° E 23:16:39 10° NNE
GEOS 3 Rocket 3.9 23:11:26 36° ESE 23:13:19 57° NE 23:18:28 10° NNW
ATLAS CENTAUR R/B 1.5 23:15:11 50° ENE 23:15:11 50° ENE 23:18:19 10° NE
Cosmos 405 Rocket 3.7 23:14:12 10° N 23:17:08 32° ENE 23:17:08 32° ENE
Gbstr 26 Del rocket 4.4 23:16:16 10° NW 23:20:17 31° NNE 23:22:04 22° ENE
Cosmos 1975 Rocket 3.6 23:18:05 10° N 23:22:22 44° ENE 23:22:32 44° E
Meteor 2-20 Rocket 4.4 23:23:36 35° S 23:26:26 90° E 23:32:35 10° N
Cosmos 494 Rocket 4.1 23:23:17 10° NNW 23:28:28 66° WSW 23:29:49 47° SSW
Cosmos 1655 Rocket 4.2 23:27:05 43° SE 23:28:29 51° E 23:34:29 10° NNE
CARTOSAT-1 3.4 23:30:29 70° SSW 23:30:55 82° WSW 23:35:16 10° NNW
Cosmos 1867 3.6 23:25:56 10° NW 23:31:22 69° WSW 23:32:34 52° S
Lacrosse 5 rocket 4.4 23:32:20 10° NW 23:34:17 14° NNW 23:36:16 10° N
Cosmos 1378 Rocket 3.6 23:30:11 10° NNW 23:34:36 74° W 23:35:07 65° SW
H-2A R/B 3.1 23:32:20 26° SSW 23:34:44 40° W 23:39:45 10° NNW
Meteor 1-18 Rocket 4.3 23:29:02 10° N 23:34:46 66° ENE 23:36:01 52° SE
Cosmos 2026 Rocket 3.9 23:36:08 46° S 23:38:04 80° E 23:44:22 10° N
Milstar 3 3.8 23:31:06 10° WSW 23:39:07 32° S 23:39:07 32° S
Landsat 7 4.5 23:39:41 39° SW 23:40:48 47° W 23:45:24 10° NNW
Cosmos 1441 Rocket 4.2 23:38:30 10° N 23:41:24 37° NE 23:41:24 37° NE
Cosmos 2297 Rocket 3.2 23:38:33 10° N 23:43:41 34° ENE 23:45:04 30° E
ATLAS 5 CENTAUR R/B 3.9 23:38:39 10° WNW 23:43:41 27° WSW 23:45:58 22° SW
CZ-4B R/B 3.7 23:39:38 10° NNE 23:44:06 49° E 23:44:06 49° E
ISS -0.7 23:42:33 10° NW 23:44:35 15° N 23:46:38 10° NNE
Cosmos 2344 4.4 23:37:31 10° WSW 23:44:59 53° NW 23:53:33 10° NNE
H-2A R/B 1.9 23:47:58 78° NNW 23:47:58 78° NNW 23:51:50 10° NNW
Okean 3 4.2 23:44:25 10° NNW 23:48:23 43° W 23:48:42 42° WSW
Meteor 2-11 Rocket 4.4 23:42:21 10° N 23:48:29 68° E 23:49:40 55° SE
IGS 5A 3.9 23:49:29 51° WSW 23:49:32 51° W 23:53:36 10° NNW
APEX 4.2 23:46:55 10° NNW 23:50:39 41° NE 23:50:39 41° NE
CZ-2C R/B 4.1 23:51:44 29° ENE 23:52:06 29° ENE 23:56:19 10° N
